This is the latest recevied weather packets stored in our database for station/object ac2ev. If no packets are shown the sender has not sent any weather packets the latest 10 day(s).
| Time | Temp. | Humidity | Pressure | Rain* | Wind** | Luminosity | Snow |
|---|---|---|---|---|---|---|---|
| 1788543122 | 25° C | 62% | 1013.7 hPa | 0 mm | - | - | - |
| 1788542823 | 25° C | 61% | 1013.9 hPa | 0 mm | - | - | - |
| 1788542523 | 25° C | 64% | 1014 hPa | 0 mm | - | - | - |
| 1788542222 | 25° C | 62% | 1013.9 hPa | 0 mm | - | - | - |
| 1788541924 | 25° C | 64% | 1014 hPa | 0 mm | - | - | - |
| 1788541623 | 24.44° C | 66% | 1014 hPa | 0 mm | - | - | - |
| 1788541343 | 24.44° C | 64% | 1014.2 hPa | 0 mm | - | - | - |
| 1788541023 | 24.44° C | 65% | 1014.2 hPa | 0 mm | - | - | - |
| 1788540723 | 24.44° C | 63% | 1014.2 hPa | 0 mm | - | - | - |
| 1788540424 | 24.44° C | 62% | 1014.2 hPa | 0 mm | - | - | - |
| 1788540120 | 24.44° C | 64% | 1014.1 hPa | 0 mm | - | - | - |
| 1788539815 | 24.44° C | 62% | 1014.1 hPa | 0 mm | - | - | - |
| 1788539595 | 24.44° C | 61% | 1014.3 hPa | 0 mm | - | - | - |
| 1788539214 | 24.44° C | 62% | 1014.3 hPa | 0 mm | - | - | - |
| 1788538996 | 24.44° C | 63% | 1014.2 hPa | 0 mm | - | - | - |
| 1788538613 | 24.44° C | 63% | 1014.2 hPa | 0 mm | - | - | - |
| 1788538312 | 23.89° C | 63% | 1014.2 hPa | 0 mm | - | - | - |
| 1788538010 | 23.89° C | 64% | 1014.1 hPa | 0 mm | - | - | - |
| 1788537708 | 23.89° C | 63% | 1014.3 hPa | 0 mm | - | - | - |
| 1788537406 | 23.89° C | 63% | 1014.3 hPa | 0 mm | - | - | - |
| 1788537102 | 23.89° C | 65% | 1014.2 hPa | 0 mm | - | - | - |
| 1788536801 | 23.89° C | 66% | 1014.2 hPa | 0 mm | - | - | - |
| 1788536501 | 23.33° C | 67% | 1014.3 hPa | 0 mm | - | - | - |
| 1788536199 | 23.33° C | 71% | 1014.2 hPa | 0 mm | - | - | - |
| 1788535896 | 23.33° C | 73% | 1014.2 hPa | 0 mm | - | - | - |
* Rain latest hour (hover to see other rain measurements)
** Current wind speed in m/s (hover to see current wind gust speed)